Location: Hastringsfeld
(50.9620°N, 10.4787°E)
Time: 12:37:46
(UTC+00:00)

USA 281 - Pass Details

Date: 26 September 2023
Orbit: 1077 x 1081 km, 106.0° (Epoch: 19 November)

Event Time Altitude Azimuth Distance (km) Brightness Sun altitude
Rises 01:36:48 0° 27° (NNE) 3,893 7.2 -31.3°
Reaches altitude 10° 01:39:20 10° 28° (NNE) 2,933 6.3 -31.0°
Maximum altitude 01:45:57 80° 116° (ESE) 1,104 3.1 -30.2°
Enters shadow 01:46:24 75° 161° (SSE) 1,119 3.1 -30.2°
